San Antonio Stinson, TX

3:31 AM CDT on April 25, 2017 (GMT -0500)
Stinson Municipal

Weather History for KSSF - January, 2015

Change the Weather History Date:

Monday, January 12, 2015

  Actual Average Record
Temperature  
Mean Temperature 45 °F -  
Max Temperature 55 °F 62 °F 82 °F (2017)
Min Temperature 35 °F 41 °F 28 °F (2009)
Degree Days  
Heating Degree Days 20    
Moisture  
Dew Point 38 °F    
Average Humidity 87    
Maximum Humidity 100    
Minimum Humidity 64    
Precipitation  
Precipitation 0.00 in - - ()
Sea Level Pressure  
Sea Level Pressure 30.23 in    
Wind  
Wind Speed 5 mph (NNE)    
Max Wind Speed 16 mph    
Max Gust Speed 25 mph    
Visibility 7 miles    
Events Fog    
Averages and records for this station are not official NWS values.
T = Trace of Precipitation, MM = Missing Value Source: NWS Daily Summary

Daily Weather History Graph

Daily Weather History Graph

Search for Another Location

Airport or City:

Trip Planner

Search our weather history database for the weather conditions in past years. The results will help you decide how hot, cold, wet, or windy it might be!

Date:

Astronomy

Jan. 12, 2015 Rise Set
Actual Time 7:29 AM CST 5:55 PM CST
Civil Twilight 7:03 AM CST 6:20 PM CST
Nautical Twilight 6:34 AM CST 6:50 PM CST
Astronomical Twilight 6:05 AM CST 7:18 PM CST
Moon No Moon Rise 11:47 AM CST (1/12)
Length of Visible Light 11h 17m
Length of Day
10h 25m
Waning Gibbous, 56% of the Moon is Illuminated
Jan 12
Waning Gibbous
Jan 13
Last Quarter
Jan 20
New
Jan 26
First Quarter
Feb 3
Full

Hourly Weather History & Observations

Time (CST) Temp. Windchill Dew Point Humidity Pressure Visibility Wind Dir Wind Speed Gust Speed Precip Events Conditions
12:53 AM 39.9 °F 36.7 °F 37.9 °F 93% 30.17 in 6.0 mi NW 4.6 mph - N/A   Clear
1:25 AM 39.0 °F - 37.9 °F 96% 30.15 in 2.5 mi Calm Calm - N/A   Clear
1:32 AM 37.9 °F - 37.0 °F 97% 30.15 in 6.0 mi Calm Calm - N/A   Clear
1:53 AM 39.0 °F - 37.0 °F 93% 30.17 in 2.0 mi Calm Calm - N/A   Clear
2:00 AM 37.0 °F 33.3 °F 36.0 °F 96% 30.16 in 1.5 mi South 4.6 mph - N/A   Clear
2:04 AM 37.0 °F 34.5 °F 36.0 °F 96% 30.16 in 3.0 mi South 3.5 mph - N/A   Clear
2:53 AM 37.9 °F 35.5 °F 36.0 °F 93% 30.18 in 5.0 mi WSW 3.5 mph - N/A   Clear
3:42 AM 37.9 °F 35.5 °F 37.0 °F 97% 30.16 in 2.5 mi West 3.5 mph - N/A   Clear
3:50 AM 35.6 °F - 35.6 °F 100% 30.16 in 3.0 mi Calm Calm - N/A   Clear
3:53 AM 36.0 °F 33.3 °F 36.0 °F 100% 30.17 in 2.5 mi SSW 3.5 mph - N/A   Clear
4:07 AM 37.0 °F - 36.0 °F 96% 30.16 in 5.0 mi Calm Calm - N/A   Clear
4:20 AM 37.0 °F - 36.0 °F 96% 30.17 in 2.5 mi Calm Calm - N/A   Scattered Clouds
4:24 AM 37.0 °F - 36.0 °F 96% 30.17 in 1.0 mi Calm Calm - N/A   Mist
4:32 AM 37.0 °F 34.5 °F 36.0 °F 96% 30.17 in 0.5 mi WSW 3.5 mph - N/A Fog Fog
4:53 AM 36.0 °F - 35.1 °F 97% 30.18 in 0.8 mi Calm Calm - N/A   Mist
5:00 AM 37.0 °F - 36.0 °F 96% 30.17 in 1.0 mi Calm Calm - N/A   Mist
5:09 AM 37.0 °F 34.5 °F 36.0 °F 96% 30.17 in 2.0 mi WSW 3.5 mph - N/A   Scattered Clouds
5:30 AM 37.0 °F - 36.0 °F 96% 30.17 in 6.0 mi Calm Calm - N/A   Clear
5:53 AM 36.0 °F - 36.0 °F 100% 30.19 in 7.0 mi Calm Calm - N/A   Clear
6:53 AM 35.1 °F - 35.1 °F 100% 30.19 in 7.0 mi Calm Calm - N/A   Clear
7:53 AM 35.1 °F 32.2 °F 34.0 °F 96% 30.21 in 6.0 mi SSW 3.5 mph - N/A   Clear
8:53 AM 42.1 °F - 39.9 °F 92% 30.23 in 10.0 mi Calm Calm - N/A   Clear
9:53 AM 48.9 °F - 43.0 °F 80% 30.27 in 10.0 mi NE 5.8 mph - N/A   Clear
10:53 AM 53.1 °F - 44.1 °F 71% 30.28 in 10.0 mi ENE 12.7 mph - N/A   Clear
11:53 AM 52.0 °F - 44.1 °F 74% 30.27 in 10.0 mi ENE 13.8 mph - N/A   Clear
12:53 PM 55.0 °F - 43.0 °F 64% 30.25 in 10.0 mi NE 16.1 mph 23.0 mph N/A   Clear
1:20 PM 52.0 °F - 43.0 °F 71% 30.24 in 10.0 mi NE 15.0 mph 21.9 mph N/A   Mostly Cloudy
1:35 PM 50.0 °F - 43.0 °F 77% 30.24 in 10.0 mi NNE 13.8 mph 21.9 mph N/A   Overcast
1:53 PM 50.0 °F - 43.0 °F 77% 30.25 in 10.0 mi NE 13.8 mph 21.9 mph N/A   Overcast
2:53 PM 48.9 °F - 42.1 °F 77% 30.24 in 10.0 mi NE 13.8 mph - N/A   Overcast
3:53 PM 48.0 °F - 42.1 °F 80% 30.26 in 10.0 mi NNE 12.7 mph - N/A   Overcast
4:53 PM 46.9 °F - 41.0 °F 80% 30.28 in 10.0 mi NNE 16.1 mph 24.2 mph N/A   Overcast
5:53 PM 46.0 °F 40.6 °F 39.9 °F 79% 30.30 in 10.0 mi NNE 11.5 mph - N/A   Overcast
6:53 PM 45.0 °F 37.9 °F 39.0 °F 80% 30.33 in 10.0 mi NNE 16.1 mph 21.9 mph N/A   Overcast
7:53 PM 44.1 °F 37.1 °F 37.9 °F 79% 30.36 in 10.0 mi North 15.0 mph - N/A   Overcast
8:53 PM 43.0 °F 35.4 °F 36.0 °F 76% 30.39 in 10.0 mi NNE 16.1 mph 20.7 mph N/A   Overcast
9:01 PM 43.0 °F 35.7 °F 36.0 °F 76% 30.38 in 10.0 mi North 15.0 mph 25.3 mph N/A   Overcast
9:53 PM 43.0 °F 36.4 °F 35.1 °F 74% 30.40 in 10.0 mi NNE 12.7 mph - N/A   Overcast
10:53 PM 44.1 °F 38.6 °F 35.1 °F 71% 30.39 in 10.0 mi NNE 10.4 mph - N/A   Overcast
11:53 PM 44.1 °F 38.1 °F 36.0 °F 73% 30.38 in 10.0 mi NNE 11.5 mph 20.7 mph N/A   Overcast